Timeline UpdatesTrip UpdatesNews PostsPvt Posts♥♥Travel TipsAdmin PostsConv PostsFollowed PostsChat RequestsBlog PostsPNR Posts

Disclaimer
Search
 
 
Tue Oct 21, 2014 02:42:44 ISTHomeTrainsΣChainsAtlasPNRForumGalleryNewsFAQTripsMembersLoginFeedback
No Recent News for this Train
Other Trains in the News **new
Latest...
.
Sat Feb 22, 2014 (10:30PM)
⇐ Return Journey: Train# 58112

58111/Tatanagar-Itwari Passenger

Time-Table HAS CHANGED.
Oct 18 (7:12AM)
Change Departure Station:
Change Arrival Station:
Post a Train Travel TipPost a Train Travel Tip **new
Post a Comment/Question/Picture/VideoPost a Comment/Question/Picture/Video
Pantry/Catering
✕ NO Pantry Car
✕ NO Catering
RSA - Rake Sharing
RSA with 58110 Gua Tatanagar Passenger. Ref: Subhash Dhavala(Entry# 217294)
Rake/Coach Composition
Loco-GS1-GS6-SLR1-SLR4-GS7-GS9 = Total 13 coaches.; Ref: Subhash Dhavala(Entry# 217294).
Loco
WAM-4 or WAG-7
News    PNR    Forum    Time-Table    Availability    Fare Chart    Map    Arr/Dep History    Trips    Gallery    ΣChains    X/O    Timeline    
Travel Time: 10h 10m    41 halts    Distance: 336 km    Avg Speed: 33 km/hr
Type: Passenger
Zone: SER/South Eastern
Departs @ 06:30
Platform# 2
SMTWTFS
Tatanagar Junction/TATA 
Arrives @ 16:40
Platform# ???
SMTWTFS
Raigarh/RIG 

41 halts. 44 intermediate Stations between Tatanagar Junction and Raigarh

Show ALL intermediate Stations  Show Old Time-Table

#TrkCodeStation NameX/OArrivesAvgDepartsAvgHaltPFDay#KmSpeedElevZoneAddress
1/==/TATATatanagar Junction (5)»  -06:30-210.025164mSER91-657-2423026, Jharkhand
2/==/ADTPAdityapur (3)X  06:41-06:42-1m--14.745152mSERJamshedpur, Jharkhand
3/==/GMHGamharia (3)X  06:51 06:50-06:52 06:51-1m1110.754165mSERJamshedpur, Jharkhand
4/==/BRBSBirbans  07:01-07:02-1m--119.754171mSERBirbans, Jharkhand
5/==/SINISini Junction (3)  07:09 07:10-07:10 07:11-1m1127.058182mSERNational Highway 33, Jharkhand
6/==/MMVMahali Marup (2)  07:19-07:20-1m--134.750183mSERMahali Marup Station, Jharkhand
7/==/RKSNRajkharsawan Junction (3)X  07:29-07:30-1m--142.256189mSERSaraikela Kharswan District, Jharkhand
8/==/BRMBarabamboX  07:40-07:41-1m--151.646213mSERBarabambo Station, Jharkhand
9/==/CKPChakradharpur (3)X  07:55-08:15-20m--162.371235mSERChakradharpur (West Singhbhum), Jharkhand
10/==/LPHLotapahar  08:23-08:24-1m--171.869251mSERLotapahar Station, Jharkhand
11/==/SWRSonua  08:34-08:35-1m--183.260287mSERSonua, Jharkhand
12/==/TUXTunia  08:41-08:42-1m--189.251297mSERTunia Station, Jharkhand
13/==/GOLGoilkera (2)  08:50-08:51-1m--196.036333mSERGoilkera, Jharkhand
14/==/DRWNDerowan P. Halt  09:07-09:08-1m--1105.751275mSERDerowan, Jharkhand
15/==/PSTPosotia (4)  09:16-09:17-1m--1112.539279mSERPosotia Station, Jharkhand
16/==/MOUManoharpur  09:30 09:34-09:31 09:35-1m--1123.543228mSERManoharpur, Jharkhand
17/==/JRAJaraikela  09:47 09:51-09:48 09:52-1m--1134.956215mSERJaraikela Station, Jharkhand
18/==/BULBhalulata  09:56 10:00-09:57 10:01-1m--1142.458239mSERRourkela, Jharkhand
19/==/BZRBisra  10:04 10:08-10:05 10:09-1m--1149.251224mSERSundargarh, Odisha
20/==/BNDMBondamunda (2)  10:14 10:18-10:15 10:19-1m--1156.815213mSERRourkela, Odisha
21/--/ROURourkela Junction (5)XO  10:40 10:45-11:15-35 30m--1163.345198mSERRourkela, Odisha
22/==/PPOPanposh (2)  11:23-11:24-1m--1169.345190mSERRourkela, Odisha
23/==/KLGKalungaX  11:34-11:35-1m--1176.861203mSERSundargarh, Odisha
24/==/KXNKanshbahal  11:42-11:43-1m--1183.955217mSERSundargarh, Odisha
25/==/GPRaj Gangpur (3)X  11:53-11:54-1m--1193.140237mSERRaj Ganpur, Odisha
26/==/SXNSonakhan  12:05-12:06-1m--1200.455249mSERSundargarh, Odisha
27/==/SOGRSogra  12:13-12:14-1m--1206.947293mSERState Highway 10, Odisha
28/==/GPHGarpos (3)X  12:20-12:21-1m--1211.652281mSERSundargarh, Odisha
29/==/TGMTangarmundaXO  12:30-12:31-1m--1219.351264mSERSundargarh, Odisha
30/==/BMBBamra (3)X  12:41-12:42-1m--1227.736259mSERBamra PH : 06642-229268, Odisha
31/==/DIHDharuadihi  12:58-12:59-1m--1237.463258mSERSH 24, Odisha
32/==/BEHBagdihi (3)  13:05-13:06-1m--1243.649257mSERState Highway 24 PH: 06640-286227, Odisha
33/==/PNPLPanpaliX  13:14-13:15-1m--1250.236258mSERJharsuguda, Odisha
34/==/DTVDhutraX  13:24-13:25-1m--1255.67240mSERJharsuguda, Odisha
35/==/JSGJharsuguda Junction (5)XO  14:40-15:30-50m--1264.290236mSERJharsuguda, Odisha
36/==/IBIb  15:36-15:37-1m--1273.353207mSECRJharsuguda, Odisha
37/==/BRJNBrajrajnagar  15:40-15:42-2m--1275.976212mSECRBrajrajnagar, Odisha
38/==/BPHBelpahar  15:49-15:51-2m--1284.873 SECRBelpahar, Odisha
39/==/HGRHimgir  16:03 16:02-16:04 16:03-1m--1298.364275mSECRNational Highway 200, Chhattisgarh
40/==/DAODaghora  16:11 16:10-16:12 16:11-1m--1305.780269mSECRRaigarh, Chhattisgarh
41/==/JMGJamga  16:22 16:20-16:23 16:21-1m--1317.773233mSECRJamga Station, Chhattisgarh
42/==/KRLKotarlia  16:30 16:28-16:31 16:29-1m--1326.253229mSECRRaigarh, Chhattisgarh
43/==/RIGRaigarh (3)•X  16:40-16:45-5m--1335.962220mSECRRaigarh, Chhattisgarh
44/==/KDTRKirodimalnagar (5)  16:52-16:53-1m--1343.179240mSECRRaigarh, Chhattisgarh
45/==/BEFBhupdeopur  17:00-17:01-1m--1352.377243mSECRRaigarh, Chhattisgarh
46/==/ROBRobertson  17:08-17:09-1m--1361.464239mSECRRaigarh, Chhattisgarh
47/==/KHSKharsia  17:17-17:19-2m--1369.952 SECRNational Highway 200, Chhattisgarh
48/==/JDIJharradihX  17:25-17:26-1m--1375.187247mSECRRaigarh, Chhattisgarh
49/==/SKTSakti (4)X  17:33-17:35-2m--1385.256237mSECRJanjgir-Champa, Chhattisgarh
50/==/BUABaradwarX  17:51-17:53-2m--1400.142 SECRJanjgir-Champa, Chhattisgarh
51/==/CPHChampa Junction (3)X  18:15-18:20-5m--1415.681264mSECRNational Highway 200 (07819-245767), Chhattisgarh
52/==/NIANaila  18:28-18:30-2m--1426.581273mSECRJanjgir, Chhattisgarh
53/==/AKTAkaltara (4)  18:41-18:43-2m--1441.487284mSECRDist. Janjgir Champa, Chhattisgarh
54/==/JRMGJairamnagar  18:53 18:52-18:55 18:54-2m--1454.529272mSECRNational Highway 200, Chhattisgarh
55/==/GTWGatora  19:11 19:10-19:13 19:12-2m--1462.212268mSECRBilaspur, Chhattisgarh
56/==/BSPBilaspur Junction (8)X  19:45-20:15 20:10-30 25m--1468.745271mSECRBilaspur, Chhattisgarh
57/==/CHBTChakarbhathaX  20:28 20:23-20:30 20:25-2m--1478.458285mSECRBilaspur, Chhattisgarh
58/==/BYLBelha  20:36 20:31-20:38 20:33-2m--1484.273269mSECRCollege Road, Chhattisgarh
59/==/NPINipaniaX  20:51 20:46-20:53 20:48-2m--1500.188259mSECRNational Highway 200, Chhattisgarh
60/==/BYTBhatapara (4)  21:03 20:58-21:05 21:00-2m--1514.884270mSECRBanjari Road, Chhattisgarh
61/==/HNHathbandhX  21:16 21:11-21:18 21:13-2m--1530.280283mSECRRaipur, Chhattisgarh
62/==/TLDTilda (3)  21:26 21:21-21:28 21:23-2m--1540.992 SECRBanjari Rd, Chhattisgarh
63/==/BKTHBaikunthX  21:33 21:27-21:35 21:29-2m--1547.028287mSECRBanjari Rd, Chhattisgarh
64/==/SLHSiliariX  21:48 21:47-21:50 21:49-2m--1555.457280mSECRBanjari Rd, Chhattisgarh
65/==/MDHMandhar  22:00 21:59-22:02 22:01-2m--1564.943281mSECRDonde Kalan, Chhattisgarh
66/==/WRCWRS Colony PHXO  22:18 22:17-22:20 22:19-2m--1576.54286mSECRRaipur, Chhattisgarh
67/==/RRaipur Junction (6)XO  23:00 22:55-23:25-25 30m--1579.168297mSECRRaipur, Chhattisgarh
68/==/KMIKumhari (2)  23:36-23:38-2m--1591.545287mSECRKumhari, Chhattisgarh
69/==/DBECDevbaloda Charoda  23:50 23:48-23:52 23:50-2m--1599.041310mSECRBhilai, Chhattisgarh
70/==/BIABhilai (2)  23:57 23:55-23:59 23:57-2m--1602.556309mSECRBhilai, Chhattisgarh
71/==/BPHBBhilai Power House (3)  00:04 00:02-00:06 00:04-2m--2607.119312mSECRBhilai, Chhattisgarh
72/==/BQRBhilai Nagar (2)  00:18-00:20-2m--2611.518298mSECRBhilai, Chhattisgarh
73/==/DURGDurg Junction (6)  00:40 00:35-00:50 00:45-10m--2616.087299mSECRPh: 91-788-2322059, Chhattisgarh
74/==/RJNRaj Nandgaon (3)X  01:11 01:06-01:16 01:11-5m--2646.5110313mSECRRajnandgaon, Chhattisgarh
75/==/MUAMusraX  01:28 01:21-01:30 01:23-2m--2664.867323mSECRRajnandgaon, Chhattisgarh
76/==/JTRJatkanhar  01:37 01:29-01:39 01:31-2m--2671.543330mSECRRajnandgaon, Chhattisgarh
77/==/DGGDongargarh (2)X  01:50 01:40-02:00 01:50-10m--2678.066 SECRDongargarh, Chhattisgarh
78/==/PJBPaniajob (2)  02:07 01:57-02:08 01:58-1m--2685.753363mSECRRajnandgaon, Chhattisgarh
79/==/BTLBortalao (2)  02:18 02:08-02:19 02:09-1m--2694.577409mSECRRajnandgaon, Chhattisgarh
80/==/DKSDarekasa (2)X  02:27 02:15-02:28 02:16-1m--2702.253381mSECRRajnandgaon, Chhattisgarh
81/==/SKSSalekasa (2)  02:41 02:29-02:43 02:31-2m--2713.888312mSECRRajnandgaon, Chhattisgarh
82/==/AGNAmgaon (2)  02:54 02:41-02:56 02:43-2m--2728.573317mSECRGondia, Maharashtra
83/==/GDMGudma (2)X  03:05 02:52-03:06 02:53-1m--2739.426323mSECRGondia, Maharashtra
84/==/GGondia Junction (7)X  03:30 03:20-03:40 03:30-10m--2751.385316mSECRGondia 441601, Maharashtra
85/==/GJGangajhari (3)X  03:51 03:40-03:52 03:41-1m--2765.472315mSECRGondia District, Maharashtra
86/==/KWNKachewani (3)X  03:59 03:48-04:00 03:49-1m--2773.882303mSECRKachewani Gondia District, Maharashtra
87/==/TROTirora (3)  04:07 03:54-04:09 03:56-2m--2780.675282mSECRDist Gondia, Maharashtra
88/==/MNUMundikota (2)  04:17 04:04-04:19 04:06-2m--2790.752269mSECRBhandara, Maharashtra
89/==/TMRTumsar Road (5)  04:30 04:18-04:32 04:20-2m--2801.098267mSECRDistt. Bhandara, Maharashtra
90/==/BRDBhandara Road (3)X  04:43 04:31-04:45 04:33-2m--2818.966266mSECRState Highway 252 Bhandara District, Maharashtra
91/==/KHATKhat (2)  04:55 04:42-04:56 04:44-1 2m--2828.877286mSECRNagpur, Maharashtra
92/==/RRLRewral (2)  05:03 04:51-05:04 04:52-1m--2837.856293mSECRNagpur Distt, Maharashtra
93/==/TARTharsa (3)X  05:09 04:58-05:11 05:00-2m--2843.554292mSECRNagpur, Maharashtra
94/==/CHCRChacher (3)  05:17 05:07-05:18 05:08-1m--2849.874284mSECRNagpur, Maharashtra
95/==/KNHNKanhan Junction (3)  05:32 05:18-05:34 05:20-2m--2862.147288mSECRKanhan, Maharashtra
96/==/KPKamptee (3)X  05:51 05:26-05:53 05:28-2m--2866.823290mSECRKamptee, Maharashtra
97/==/KAVKalamna (3)  06:11 05:48-06:13 05:50-2m--2874.54296mSECRNagpur, Maharashtra
98/==/ITRItwari (3)  06:45 06:35----2877.3-306mSECRNagpur, Maharashtra
Scroll to Top
Scroll to Bottom